Weather History for Charles City, IA

Change the Weather History Date:

Sunday, April 7, 2013

  Actual Average Record
Temperature  
Mean Temperature 43 °F -  
Max Temperature 53 °F 57 °F 86 °F (1991)
Min Temperature 33 °F 33 °F 15 °F (1990)
Degree Days  
Heating Degree Days 22    
Moisture  
Dew Point 37 °F    
Average Humidity 77    
Maximum Humidity 93    
Minimum Humidity 58    
Precipitation  
Precipitation 0.00 in - - ()
Sea Level Pressure  
Sea Level Pressure 29.85 in    
Wind  
Wind Speed 11 mph (NE)    
Max Wind Speed 18 mph    
Max Gust Speed 31 mph    
Visibility 8 miles    
Events      
Averages and records for this station are not official NWS values.
T = Trace of Precipitation, MM = Missing Value Source: NWS Daily Summary

Daily Weather History Graph

Daily Weather History Graph

Search for Another Location

Airport:

Trip Planner

Search our weather history database for the weather conditions in past years. The results will help you decide how hot, cold, wet, or windy it might be!

Date:

Astronomy

Apr. 07, 2013 Rise Set
Actual Time 6:41 AM CDT 7:44 PM CDT
Civil Twilight 6:12 AM CDT 8:13 PM CDT
Nautical Twilight 5:37 AM CDT 8:47 PM CDT
Astronomical Twilight 5:01 AM CDT 9:24 PM CDT
Moon 5:03 AM CDT (4/7) 5:13 PM CDT (4/7)
Length of Visible Light 14h 00m
Length of Day
13h 02m
Waning Crescent, 8% of the Moon is Illuminated
Apr 7
Waning Crescent
Apr 10
New
Apr 18
First Quarter
Apr 25
Full
May 2
Last Quarter

Hourly Weather History & Observations

Time (CDT) Temp. Windchill Dew Point Humidity Pressure Visibility Wind Dir Wind Speed Gust Speed Precip Events Conditions
12:15 AM 39.2 °F 29.8 °F 33.8 °F 81% 29.76 in 10.0 mi NW 18.4 mph 31.1 mph N/A   Mostly Cloudy
12:55 AM 37.4 °F 29.8 °F 33.8 °F 87% 29.77 in 10.0 mi NW 11.5 mph - N/A   Scattered Clouds
1:15 AM 39.2 °F 31.2 °F 33.8 °F 81% 29.78 in 10.0 mi NW 13.8 mph - N/A   Overcast
1:35 AM 39.2 °F 32.0 °F 33.8 °F 81% 29.79 in 10.0 mi NW 11.5 mph 19.6 mph N/A   Overcast
1:55 AM 39.2 °F 32.5 °F 33.8 °F 81% 29.79 in 10.0 mi NW 10.4 mph 17.3 mph N/A   Overcast
2:15 AM 39.2 °F 33.6 °F 33.8 °F 81% 29.80 in 10.0 mi NW 8.1 mph - N/A   Overcast
2:35 AM 39.2 °F 31.6 °F 33.8 °F 81% 29.80 in 9.0 mi NW 12.7 mph - N/A   Overcast
2:55 AM 39.2 °F 34.2 °F 33.8 °F 81% 29.80 in 10.0 mi NW 6.9 mph 16.1 mph N/A   Overcast
3:15 AM 37.4 °F 32.1 °F 35.6 °F 93% 29.82 in 8.0 mi WNW 6.9 mph - N/A   Overcast
3:35 AM 37.4 °F 30.8 °F 33.8 °F 87% 29.82 in 9.0 mi WNW 9.2 mph - N/A   Overcast
3:55 AM 37.4 °F 29.8 °F 33.8 °F 87% 29.83 in 8.0 mi WNW 11.5 mph - N/A   Overcast
4:15 AM 37.4 °F 30.3 °F 33.8 °F 87% 29.83 in 7.0 mi NW 10.4 mph - N/A   Overcast
4:35 AM 35.6 °F 26.6 °F 33.8 °F 93% 29.83 in 6.0 mi NNW 13.8 mph - N/A   Overcast
4:55 AM 35.6 °F 27.1 °F 33.8 °F 93% 29.84 in 6.0 mi NNW 12.7 mph - N/A   Overcast
5:15 AM 35.6 °F 28.6 °F 33.8 °F 93% 29.84 in 6.0 mi NNW 9.2 mph - N/A   Overcast
5:35 AM 35.6 °F 27.1 °F 33.8 °F 93% 29.83 in 5.0 mi North 12.7 mph - N/A   Overcast
5:55 AM 35.6 °F 27.1 °F 32.0 °F 87% 29.84 in 5.0 mi NNW 12.7 mph - N/A   Overcast
6:15 AM 35.6 °F 27.5 °F 32.0 °F 87% 29.85 in 5.0 mi NW 11.5 mph - N/A   Overcast
6:35 AM 35.6 °F 27.5 °F 32.0 °F 87% 29.87 in 5.0 mi NNW 11.5 mph - N/A   Overcast
7:15 AM 35.6 °F 29.2 °F 32.0 °F 87% 29.88 in 3.0 mi NNW 8.1 mph - N/A   Overcast
7:35 AM 35.6 °F 28.0 °F 32.0 °F 87% 29.89 in 4.0 mi NNW 10.4 mph - N/A   Overcast
7:55 AM 35.6 °F 29.2 °F 32.0 °F 87% 29.90 in 4.0 mi NNW 8.1 mph - N/A   Overcast
8:15 AM 33.8 °F 26.4 °F 32.0 °F 93% 29.91 in 3.0 mi North 9.2 mph - N/A   Overcast
8:35 AM 35.6 °F 28.6 °F 32.0 °F 87% 29.92 in 3.0 mi NNW 9.2 mph - N/A   Overcast
9:15 AM 35.6 °F 29.2 °F 32.0 °F 87% 29.92 in 5.0 mi NNW 8.1 mph - N/A   Overcast
9:35 AM 35.6 °F 30.7 °F 32.0 °F 87% 29.93 in 5.0 mi North 5.8 mph - N/A   Overcast
9:55 AM 35.6 °F 29.9 °F 32.0 °F 87% 29.94 in 5.0 mi North 6.9 mph - N/A   Overcast
10:15 AM 35.6 °F 31.7 °F 33.8 °F 93% 29.95 in 5.0 mi Variable 4.6 mph - N/A   Overcast
10:35 AM 35.6 °F - 33.8 °F 93% 29.95 in 5.0 mi Calm Calm - N/A   Overcast
10:55 AM 35.6 °F - 32.0 °F 87% 29.96 in 5.0 mi Calm Calm - N/A   Overcast
11:15 AM 37.4 °F 33.8 °F 33.8 °F 87% 29.96 in 6.0 mi West 4.6 mph - N/A   Haze
11:35 AM 37.4 °F 32.8 °F 33.8 °F 87% 29.97 in 6.0 mi NNE 5.8 mph - N/A   Overcast
11:55 AM 39.2 °F 37.0 °F 33.8 °F 81% 29.96 in 6.0 mi Variable 3.5 mph - N/A   Haze
12:15 PM 39.2 °F - 33.8 °F 81% 29.96 in 7.0 mi Calm Calm - N/A   Overcast
12:35 PM 41.0 °F 35.8 °F 35.6 °F 81% 29.94 in 8.0 mi ENE 8.1 mph - N/A   Mostly Cloudy
12:55 PM 41.0 °F 38.0 °F 35.6 °F 81% 29.94 in 8.0 mi Variable 4.6 mph - N/A   Mostly Cloudy
1:15 PM 42.8 °F 38.6 °F 35.6 °F 76% 29.93 in 9.0 mi Variable 6.9 mph - N/A   Mostly Cloudy
1:55 PM 46.4 °F 44.3 °F 37.4 °F 71% 29.92 in 9.0 mi Variable 4.6 mph - N/A   Clear
2:15 PM 46.4 °F 43.5 °F 37.4 °F 71% 29.91 in 10.0 mi ESE 5.8 mph - N/A   Clear
2:35 PM 48.2 °F - 37.4 °F 66% 29.90 in 9.0 mi ENE 5.8 mph 12.7 mph N/A   Clear
2:55 PM 50.0 °F - 37.4 °F 62% 29.90 in 10.0 mi SE 6.9 mph - N/A   Clear
3:15 PM 50.0 °F - 37.4 °F 62% 29.89 in 10.0 mi SSE 10.4 mph - N/A   Clear
3:35 PM 51.8 °F - 39.2 °F 62% 29.88 in 10.0 mi SSE 6.9 mph 13.8 mph N/A   Clear
3:55 PM 51.8 °F - 39.2 °F 62% 29.87 in 10.0 mi SSE 10.4 mph - N/A   Clear
4:15 PM 53.6 °F - 39.2 °F 58% 29.86 in 10.0 mi SE 9.2 mph - N/A   Clear
4:35 PM 53.6 °F - 41.0 °F 62% 29.86 in 10.0 mi SSE 11.5 mph 18.4 mph N/A   Clear
4:55 PM 53.6 °F - 39.2 °F 58% 29.86 in 10.0 mi SSE 11.5 mph 17.3 mph N/A   Scattered Clouds
5:15 PM 53.6 °F - 39.2 °F 58% 29.85 in 10.0 mi SE 10.4 mph - N/A   Partly Cloudy
5:55 PM 53.6 °F - 41.0 °F 62% 29.84 in 10.0 mi ESE 10.4 mph - N/A   Clear
6:15 PM 53.6 °F - 41.0 °F 62% 29.82 in 10.0 mi ESE 11.5 mph - N/A   Scattered Clouds
6:35 PM 53.6 °F - 41.0 °F 62% 29.82 in 10.0 mi ESE 10.4 mph - N/A   Mostly Cloudy
6:55 PM 53.6 °F - 41.0 °F 62% 29.81 in 10.0 mi East 10.4 mph - N/A   Mostly Cloudy
7:15 PM 53.6 °F - 41.0 °F 62% 29.80 in 10.0 mi ESE 12.7 mph - N/A   Overcast
7:35 PM 51.8 °F - 41.0 °F 67% 29.80 in 10.0 mi ESE 10.4 mph - N/A   Mostly Cloudy
7:55 PM 51.8 °F - 41.0 °F 67% 29.79 in 10.0 mi SE 11.5 mph - N/A   Overcast
8:15 PM 51.8 °F - 41.0 °F 67% 29.79 in 10.0 mi ESE 11.5 mph - N/A   Overcast
8:35 PM 51.8 °F - 41.0 °F 67% 29.79 in 10.0 mi ESE 11.5 mph - N/A   Overcast
8:55 PM 51.8 °F - 42.8 °F 71% 29.79 in 10.0 mi ESE 12.7 mph - N/A   Overcast
9:15 PM 51.8 °F - 42.8 °F 71% 29.78 in 10.0 mi ESE 12.7 mph - N/A   Overcast
9:35 PM 51.8 °F - 42.8 °F 71% 29.77 in 10.0 mi ESE 13.8 mph - N/A   Overcast
9:55 PM 51.8 °F - 42.8 °F 71% 29.76 in 10.0 mi East 13.8 mph - N/A   Overcast
10:15 PM 51.8 °F - 41.0 °F 67% 29.75 in 10.0 mi East 11.5 mph - N/A   Overcast
10:35 PM 50.0 °F - 41.0 °F 71% 29.74 in 10.0 mi ESE 13.8 mph - N/A   Overcast
10:55 PM 50.0 °F - 41.0 °F 71% 29.73 in 10.0 mi ESE 13.8 mph - N/A   Mostly Cloudy
11:15 PM 50.0 °F - 41.0 °F 71% 29.73 in 10.0 mi ESE 15.0 mph - N/A   Overcast
11:35 PM 50.0 °F - 41.0 °F 71% 29.72 in 10.0 mi ESE 13.8 mph - N/A   Overcast
11:55 PM 50.0 °F - 41.0 °F 71% 29.71 in 10.0 mi SE 13.8 mph 20.7 mph N/A   Overcast